[[{"header":{"parameterUnit":"m.s-1","parameterCategory":1,"la1":30.2991,"la2":30.254,"lo1":-89.0895,"lo2":-89.0444,"dy":0.0017,"dx":0.0017,"nx":28,"ny":28,"refTime":"2025-03-11T03:00:00:Z","depth":0,"parameterNumber":2,"parameterNumberName":"U-component_of_WINDS"},"data":[0,0,0,0,0,0,0,0,0,0,0,0,0,0,0,0,0,0,0,0,0,0,0,0,0,0,0,0,0,0,0,0,0,0,0,0,0,0,0,0,0,0,0,0,0,0,0,0,0,0,0,0,0,0,0,0,0,0,-0.2922,-0.2921,0,-0.2788,-0.2787,-0.2785,-0.2713,-0.2713,-0.2713,-0.2713,-0.2574,-0.2571,-0.2567,0,0,0,0,0,0,0,0,0,0,0,0,0,-0.3114,-0.311,-0.2922,-0.2921,-0.2919,-0.2789,-0.2787,-0.2785,-0.2714,-0.2713,-0.2713,-0.2713,-0.2575,-0.2571,-0.2567,0,0,0,0,0,0,0,0,0,0,0,0,0,-0.301,-0.3109,-0.2923,-0.2868,-0.2861,-0.2789,-0.2787,-0.2784,-0.2714,-0.2713,-0.2713,-0.2713,-0.2577,-0.2571,-0.2566,-0.2537,0,0,-0.255,-0.2547,0,0,0,0,0,0,0,0,-0.3016,-0.3003,-0.2877,-0.2871,-0.2864,-0.2767,-0.2803,-0.2702,-0.2714,-0.277,-0.2713,-0.2713,-0.2638,-0.2628,-0.2603,-0.2531,-0.2525,-0.2549,-0.2546,-0.2544,-0.2542,0,0,0,0,0,0,0,-0.3023,-0.3009,-0.2869,-0.2876,-0.2868,-0.2849,-0.2834,-0.2784,-0.2707,-0.2765,-0.2759,-0.2744,-0.2635,-0.2609,-0.2599,-0.2523,-0.2549,-0.2545,-0.2541,-0.2539,-0.2419,-0.2419,0,0,0,0,0,0,-0.304,-0.3015,-0.2873,-0.2865,-0.2941,-0.2846,-0.2829,-0.2799,-0.2707,-0.2693,-0.2745,-0.2742,-0.2618,-0.2606,-0.2594,-0.2554,-0.2544,-0.2539,-0.2536,-0.2419,-0.2419,-0.2419,0,0,0,0,0,0,-0.3044,-0.3028,-0.2879,-0.2939,-0.2918,-0.2843,-0.2809,-0.2796,-0.277,-0.2692,-0.2678,-0.2732,-0.2617,-0.2602,-0.2552,-0.2548,-0.2536,-0.2531,-0.2419,-0.2419,-0.2419,-0.2473,0,0,0,0,0,0,-0.305,-0.303,-0.3019,-0.2939,-0.2915,-0.284,-0.2809,-0.2794,-0.2761,-0.2756,-0.2677,-0.2663,-0.2616,-0.256,-0.2547,-0.254,-0.2527,-0.2419,-0.2419,-0.2419,-0.2471,-0.2475,-0.2478,0,0,0,0,0,-0.3057,-0.3039,-0.3019,-0.3002,-0.29,-0.284,-0.2826,-0.2772,-0.2761,-0.2749,-0.2699,-0.2666,-0.2551,-0.2556,-0.254,-0.2532,-0.2419,-0.2419,-0.2419,-0.247,-0.2474,-0.2478,0,0,0,0,0,0,-0.3121,-0.3028,-0.3004,-0.296,-0.2908,-0.2828,-0.2811,-0.2779,-0.2729,-0.2726,-0.2661,-0.2643,-0.2599,-0.256,-0.2568,-0.2498,-0.2481,-0.2478,-0.2526,-0.2529,-0.2533,-0.2543,-0.2523,0,0,0,0,0,-0.313,-0.3089,-0.301,-0.2979,-0.2954,-0.2887,-0.2859,-0.2822,-0.2765,-0.2743,-0.2689,-0.2635,-0.2586,-0.2556,-0.2507,-0.2466,-0.2446,-0.2452,-0.2456,-0.2459,-0.2456,-0.243,-0.2432,-0.2419,-0.2419,-0.2419,0,0,-0.3148,-0.3092,-0.307,-0.299,-0.2946,-0.2904,-0.2869,-0.2827,-0.2795,-0.2736,-0.2686,-0.2644,-0.2579,-0.2534,-0.2511,-0.25,-0.2456,-0.2459,-0.2462,-0.2458,-0.2431,-0.2432,-0.2433,-0.2419,-0.2419,-0.2419,0,0,-0.3159,-0.3114,-0.3082,-0.3038,-0.2971,-0.2927,-0.2919,-0.2843,-0.2813,-0.2762,-0.2716,-0.2677,-0.2595,-0.255,-0.2517,-0.2511,-0.2478,-0.2496,-0.2514,-0.2489,-0.249,-0.2491,-0.2488,-0.2487,-0.2495,-0.2495,-0.2495,0,-0.319,-0.3126,-0.307,-0.303,-0.2996,-0.2941,-0.2908,-0.2867,-0.2788,-0.2765,-0.2754,-0.2649,-0.2602,-0.2544,-0.2543,-0.2518,-0.2506,-0.2505,-0.2495,-0.2495,-0.2495,-0.2491,-0.249,-0.2497,-0.2497,-0.2497,-0.2497,0,-0.3167,-0.3123,-0.3106,-0.3031,-0.2994,-0.2958,-0.2895,-0.2865,-0.2831,-0.2787,-0.2735,-0.2676,-0.2613,-0.2597,-0.2563,-0.2534,-0.2529,-0.2508,-0.2489,-0.2499,-0.2495,-0.2493,-0.2501,-0.25,-0.2499,-0.2499,0,0,-0.3215,-0.3109,-0.3103,-0.3068,-0.299,-0.2954,-0.2915,-0.2854,-0.2829,-0.2776,-0.2741,-0.2672,-0.2651,-0.2614,-0.2574,-0.2553,-0.255,-0.2533,-0.2531,-0.2538,-0.2513,-0.2529,-0.2528,-0.2528,-0.2528,-0.2527,-0.2518,0,-0.3215,-0.3143,-0.309,-0.3038,-0.2996,-0.2943,-0.2908,-0.2856,-0.2814,-0.2771,-0.2724,-0.2677,-0.2653,-0.263,-0.2606,-0.2556,-0.2544,-0.2556,-0.2493,-0.2492,-0.2511,-0.2526,-0.2543,-0.2537,-0.2516,-0.2515,-0.2515,0,-0.3205,-0.3154,-0.3097,-0.3022,-0.3003,-0.2973,-0.2912,-0.2873,-0.2812,-0.2783,-0.274,-0.27,-0.2655,-0.2641,-0.2577,-0.2586,-0.2557,-0.2528,-0.2527,-0.2518,-0.2504,-0.2517,-0.2534,-0.2533,-0.2512,-0.2512,-0.2512,0,-0.3245,-0.3162,-0.3116,-0.3088,-0.3,-0.298,-0.2942,-0.2881,-0.2848,-0.2794,-0.2772,-0.2714,-0.2683,-0.2638,-0.2583,-0.2578,-0.2524,-0.2506,-0.2498,-0.2499,-0.2489,-0.249,-0.25,-0.2472,-0.2472,-0.2472,-0.2472,0,-0.325,-0.3217,-0.3133,-0.3105,-0.3067,-0.3006,-0.2969,-0.2927,-0.2873,-0.2835,-0.2785,-0.2751,-0.268,-0.2637,-0.2593,-0.2546,-0.2532,-0.2506,-0.2495,-0.251,-0.2514,-0.249,-0.2489,-0.2471,-0.2472,-0.2472,-0.2472,0,-0.3288,-0.323,-0.3177,-0.3098,-0.3077,-0.3052,-0.2984,-0.2954,-0.2909,-0.2862,-0.2847,-0.2776,-0.2722,-0.2663,-0.2589,-0.256,-0.2515,-0.2499,-0.2536,-0.2529,-0.2524,-0.2525,-0.2519,-0.2515,-0.2491,-0.2491,-0.2492,0,-0.3294,-0.3268,-0.3185,-0.3157,-0.312,-0.3075,-0.304,-0.2979,-0.2945,-0.2873,-0.2852,-0.2795,-0.2746,-0.2662,-0.2603,-0.2546,-0.2528,-0.253,-0.2519,-0.2535,-0.2526,-0.2529,-0.2525,-0.2533,-0.2533,-0.2534,-0.2534,0,-0.3312,-0.3285,-0.3237,-0.3179,-0.3139,-0.3091,-0.304,-0.3019,-0.2948,-0.2912,-0.2857,-0.2819,-0.2743,-0.2686,-0.2622,-0.2581,-0.2545,-0.2538,-0.2533,-0.2548,-0.257,-0.2557,-0.2544,-0.2538,-0.2538,-0.2538,-0.2537,-0.2537,-0.3333,-0.3307,-0.3244,-0.3193,-0.3148,-0.3102,-0.307,-0.3021,-0.2974,-0.2908,-0.2874,-0.2819,-0.2757,-0.2667,-0.2628,-0.2583,-0.2571,-0.2564,-0.2562,-0.2561,-0.2565,-0.2578,-0.2571,-0.2571,-0.2571,-0.257,-0.257,0,-0.3348,-0.3305,-0.3258,-0.3188,-0.3147,-0.3118,-0.306,-0.3027,-0.2979,-0.2925,-0.2877,-0.2813,-0.2757,-0.2694,-0.2634,-0.261,-0.2592,-0.2596,-0.2597,-0.2588,-0.2579,-0.2589,-0.2612,-0.2612,-0.2612,-0.2612,-0.2612,-0.2612,-0.335,-0.3303,-0.3268,-0.3198,-0.3155,-0.3101,-0.307,-0.3026,-0.2983,-0.2913,-0.2867,-0.2826,-0.2768,-0.2703,-0.265,-0.2633,-0.2612,-0.2621,-0.2599,-0.2592,-0.2589,-0.2586,-0.2594,-0.2618,-0.2618,-0.2611,-0.2611,-0.2611]},{"header":{"parameterUnit":"m.s-1","parameterCategory":1,"la1":30.2991,"la2":30.254,"lo1":-89.0895,"lo2":-89.0444,"dy":0.0017,"dx":0.0017,"nx":28,"ny":28,"refTime":"2025-03-11T03:00:00:Z","depth":0,"parameterNumber":3,"parameterNumberName":"V-component_of_WINDS"},"data":[0,0,0,0,0,0,0,0,0,0,0,0,0,0,0,0,0,0,0,0,0,0,0,0,0,0,0,0,0,0,0,0,0,0,0,0,0,0,0,0,0,0,0,0,0,0,0,0,0,0,0,0,0,0,0,0,0,0,3.4101,3.4101,0,3.4118,3.4119,3.4119,3.4087,3.4086,3.4085,3.4084,3.41,3.4101,3.4102,0,0,0,0,0,0,0,0,0,0,0,0,0,3.4037,3.4038,3.4101,3.4101,3.4101,3.4118,3.4119,3.4119,3.4088,3.4086,3.4085,3.4084,3.4099,3.4101,3.4103,0,0,0,0,0,0,0,0,0,0,0,0,0,3.4061,3.4039,3.4101,3.4088,3.4087,3.4118,3.4119,3.4119,3.4088,3.4086,3.4085,3.4083,3.4099,3.4101,3.4103,3.4147,0,0,3.4109,3.411,0,0,0,0,0,0,0,0,3.4059,3.4063,3.4089,3.4089,3.4088,3.4099,3.4102,3.4128,3.4088,3.4087,3.4084,3.4083,3.4101,3.4102,3.4109,3.4148,3.4148,3.4109,3.4111,3.4111,3.4112,0,0,0,0,0,0,0,3.4058,3.4062,3.4108,3.409,3.4089,3.408,3.4082,3.4107,3.4102,3.4087,3.4085,3.4088,3.41,3.4107,3.4109,3.4149,3.4109,3.4111,3.4112,3.4113,3.4225,3.4227,0,0,0,0,0,0,3.4058,3.4061,3.4107,3.4108,3.4069,3.4083,3.4084,3.4097,3.4102,3.4101,3.4089,3.4086,3.4104,3.4107,3.411,3.4163,3.4111,3.4113,3.4115,3.4224,3.4226,3.4228,0,0,0,0,0,0,3.4057,3.4063,3.4106,3.4084,3.4089,3.4085,3.41,3.4098,3.4106,3.4104,3.4102,3.4098,3.4103,3.4107,3.4138,3.4163,3.4114,3.4116,3.4222,3.4224,3.4227,3.4269,0,0,0,0,0,0,3.4055,3.4062,3.408,3.4085,3.409,3.4136,3.4101,3.41,3.411,3.4106,3.4111,3.4111,3.4102,3.4136,3.414,3.4165,3.4118,3.4219,3.4223,3.4226,3.4266,3.4273,3.4279,0,0,0,0,0,3.4053,3.409,3.4081,3.4086,3.4112,3.4137,3.414,3.4131,3.4112,3.4129,3.4128,3.411,3.4159,3.4139,3.4144,3.417,3.4218,3.4222,3.4226,3.4263,3.4272,3.4279,0,0,0,0,0,0,3.4087,3.409,3.408,3.412,3.4129,3.4132,3.4153,3.414,3.4154,3.415,3.4137,3.4138,3.4173,3.4174,3.4151,3.4213,3.4185,3.419,3.4212,3.422,3.4227,3.4226,3.412,0,0,0,0,0,3.4099,3.412,3.4121,3.4156,3.4161,3.4157,3.4167,3.4159,3.4167,3.4171,3.4172,3.4179,3.4196,3.4208,3.4223,3.4265,3.4266,3.4285,3.4292,3.4298,3.4303,3.4326,3.4335,3.424,3.424,3.424,0,0,3.4124,3.4129,3.4142,3.4163,3.4169,3.4191,3.416,3.4184,3.42,3.4174,3.4205,3.4206,3.4213,3.4251,3.4267,3.4253,3.4329,3.4303,3.4307,3.4309,3.4331,3.434,3.4348,3.4243,3.4243,3.4242,0,0,3.4181,3.4186,3.4217,3.4224,3.4234,3.423,3.4238,3.4243,3.4243,3.4274,3.4256,3.4273,3.4303,3.431,3.4317,3.4378,3.4363,3.4383,3.4419,3.4442,3.4449,3.4456,3.4479,3.4487,3.4388,3.4388,3.4388,0,3.4211,3.4244,3.4234,3.426,3.427,3.4249,3.4279,3.4286,3.43,3.4307,3.4291,3.4329,3.4332,3.4371,3.4386,3.4392,3.44,3.4383,3.4449,3.4456,3.4462,3.4483,3.4492,3.439,3.439,3.439,3.4389,0,3.4281,3.4304,3.4327,3.4343,3.4355,3.4383,3.4377,3.439,3.4381,3.438,3.4412,3.4415,3.4432,3.444,3.4431,3.4478,3.4469,3.4451,3.4423,3.4473,3.4494,3.4502,3.4394,3.4393,3.4392,3.4391,0,0,3.436,3.4371,3.438,3.4387,3.4397,3.4414,3.4441,3.4458,3.4471,3.448,3.4503,3.4529,3.4513,3.4521,3.4512,3.4532,3.4582,3.4512,3.4512,3.4526,3.4636,3.465,3.466,3.4571,3.4573,3.4574,3.4636,0,3.4418,3.4467,3.4459,3.4505,3.4527,3.4507,3.453,3.4539,3.4538,3.4555,3.4553,3.4573,3.4549,3.4554,3.4573,3.4572,3.4604,3.4567,3.4593,3.4594,3.4593,3.467,3.4686,3.4744,3.4643,3.4645,3.4645,0,3.4493,3.4508,3.4557,3.4564,3.4573,3.4595,3.4611,3.4627,3.4636,3.4634,3.4644,3.4631,3.4658,3.4629,3.4665,3.464,3.465,3.4651,3.4653,3.4656,3.4624,3.4677,3.4762,3.4771,3.4658,3.4657,3.4656,0,3.4548,3.458,3.4614,3.4621,3.4629,3.4645,3.4649,3.4657,3.4668,3.4681,3.4689,3.4704,3.4713,3.4725,3.4717,3.4696,3.4756,3.4725,3.4755,3.4755,3.4769,3.4769,3.4858,3.4773,3.4773,3.4773,3.4773,0,3.4615,3.4646,3.4639,3.466,3.4695,3.4684,3.4718,3.472,3.4727,3.4747,3.473,3.4749,3.4737,3.4756,3.4749,3.4781,3.4785,3.4784,3.4782,3.4787,3.4787,3.4794,3.479,3.4775,3.4775,3.4774,3.4774,0,3.4682,3.4679,3.4715,3.4721,3.4723,3.4749,3.4753,3.4773,3.477,3.4797,3.4802,3.4799,3.4819,3.4813,3.4834,3.483,3.4871,3.4863,3.4869,3.4868,3.4899,3.4896,3.4997,3.501,3.4915,3.4916,3.4916,0,3.4726,3.475,3.4759,3.4773,3.4779,3.48,3.4812,3.4803,3.4816,3.4828,3.4846,3.4865,3.4881,3.4915,3.4914,3.493,3.4924,3.4958,3.4926,3.493,3.4926,3.4926,3.4928,3.4965,3.4966,3.4967,3.4967,0,3.4805,3.4802,3.4821,3.484,3.4855,3.4868,3.488,3.4892,3.4883,3.4898,3.4921,3.4933,3.4956,3.4976,3.4991,3.4994,3.498,3.4977,3.4985,3.4991,3.4994,3.4994,3.4888,3.4975,3.4974,3.4974,3.4973,3.4973,3.4863,3.4884,3.4894,3.4916,3.4924,3.4936,3.4955,3.4956,3.4974,3.4994,3.4986,3.5012,3.502,3.5039,3.5045,3.5064,3.5051,3.5062,3.5065,3.5069,3.5073,3.4989,3.5066,3.5066,3.5066,3.5066,3.5066,0,3.4942,3.4948,3.4968,3.4986,3.5003,3.4989,3.5001,3.5016,3.504,3.5049,3.5065,3.509,3.511,3.511,3.5128,3.5143,3.5137,3.5149,3.5148,3.5149,3.5083,3.5075,3.5153,3.5153,3.5153,3.5153,3.5153,3.5153,3.4985,3.5021,3.5019,3.5059,3.5063,3.509,3.5098,3.5109,3.5117,3.5147,3.5163,3.5164,3.5169,3.5188,3.5205,3.5204,3.5212,3.5227,3.5224,3.5162,3.5154,3.5146,3.5138,3.5228,3.5228,3.5288,3.5289,3.5289]}]]